SCP
-1 -1 -0 0 0 0 0 -0 0 -0 -0 -0 -0 -0 -0 -0 -0 0 0 0 0 0 0 0 0 0 0 0 0 0 0 0 0 0 0 0 0 0 0 0 0 0 0
-2 -1 -1 -0 -0 0 0 -0 -0 -0 -0 -0 -0 -0 -0 -0 -0 0 0 0 0 0 0 0 0 0 0 0 0 0 0 0 0 0 0 0 0 0 0 0 0 0 0
-1 -1 -1 -1 -0 0 0 0 0 -0 -0 -0 -0 -0 -0 -0 0 0 0 0 0 0 0 0 0 0 0 0 0 0 0 0 0 0 0 0 0 0 0 0 0 0 0
-1 -1 -1 -1 -0 -0 0 0 0 -0 0 -0 -0 -0 -0 -0 0 0 0 0 0 0 0 0 0 0 0 0 0 0 0 0 0 0 0 0 0 0 0 0 0 0 0
-0 -1 -1 -1 -0 -0 0 0 0 0 0 0 0 -0 -0 0 0 0 0 0 0 0 0 0 0 0 0 0 0 0 0 0 0 0 0 0 0 0 0 0 0 0 0
0 -0 -0 0 -0 -0 0 0 0 0 0 1 0 0 0 0 0 0 0 0 0 0 0 0 0 0 0 0 0 0 0 0 0 0 0 0 0 0 0 0 0 0 0
1 1 1 1 0 0 0 1 0 1 1 1 1 0 0 0 0 0 0 0 0 0 0 0 0 0 0 0 0 0 0 0 0 0 0 0 0 0 0 0 0 0 0
2 2 2 2 1 1 1 1 1 1 1 1 1 0 0 0 0 0 0 0 0 0 0 0 0 0 0 0 0 0 0 0 0 0 0 0 0 0 0 0 0 0 0
2 2 2 2 2 2 1 1 2 2 2 2 1 1 1 1 0 0 0 0 0 0 0 0 0 0 0 0 0 0 0 0 0 0 0 0 0 0 0 0 0 0 0
2 1 2 3 3 2 2 2 3 3 3 3 2 2 1 1 0 0 0 0 0 0 0 0 0 0 0 0 0 0 0 0 0 0 0 0 0 0 0 0 0 0 0
2 3 5 5 4 3 4 3 3 4 5 5 4 3 2 1 0 0 0 0 0 0 0 0 0 0 0 0 0 0 0 0 0 0 0 0 0 0 0 0 0 0 0
3 3 3 5 6 6 5 5 5 6 6 4 3 1 1 0 0 0 0 0 0 0 0 0 0 0 0 0 0 0 0 0 0 0 0 0 0 0 0 0 0 0 0
4 3 5 5 5 7 8 9 8 6 5 3 3 1 0 0 0 0 0 0 0 0 0 0 0 0 0 0 0 0 0 0 0 0 0 0 0 0 0 0 0 0 0
6 5 7 7 9 8 9 10 8 5 3 2 2 1 0 0 0 0 0 0 0 0 0 0 0 0 0 0 0 0 0 0 0 0 0 0 0 0 0 0 0 0 0
21 17 16 15 12 5 0 5 4 2 2 2 1 1 1 0 0 0 0 0 0 0 0 0 0 0 0 0 0 0 0 0 0 0 0 0 0 0 0 0 0 0 0
15 10 6 2 0 0 0 0 0 0 0 0 0 0 0 0 0 0 0 0 0 0 0 0 0 0 0 0 0 0 0 0 0 0 0 0 0 0 0 0 0 0 0
5 3 1 1 0 0 0 0 0 0 0 0 0 0 0 0 0 0 0 0 0 0 0 0 0 0 0 0 0 0 0 0 0 0 0 0 0 0 0 0 0 0 0
1 1 1 0 0 0 0 0 0 0 0 0 0 0 0 0 0 0 0 0 0 0 0 0 0 0 0 0 0 0 0 0 0 0 0 0 0 0 0 0 0 0 0
0 0 0 0 0 0 0 0 0 0 0 0 0 0 0 0 0 0 0 0 0 0 0 0 0 0 0 0 0 0 0 0 0 0 0 0 0 0 0 0 0 0 0
0 0 0 0 0 0 0 0 0 0 0 0 0 0 0 0 0 0 0 0 0 0 0 0 0 0 0 0 0 0 0 0 0 0 0 0 0 0 0 0 0 0 0
0 0 0 0 0 0 0 0 0 0 0 0 0 0 0 0 0 0 0 0 0 0 0 0 0 0 0 0 0 0 0 0 0 0 0 0 0 0 0 0 0 0 0
0 0 0 0 0 0 0 0 0 0 0 0 0 0 0 0 0 0 0 0 0 0 0 0 0 0 0 0 0 0 0 0 0 0 0 0 0 0 0 0 0 0 0
0 0 0 0 0 0 0 0 0 0 0 0 0 0 0 0 0 0 0 0 0 0 0 0 0 0 0 0 0 0 0 0 0 0 0 0 0 0 0 0 0 0 0
0 0 0 0 0 0 0 0 0 0 0 0 0 0 0 0 0 0 0 0 0 0 0 0 0 0 0 0 0 0 0 0 0 0 0 0 0 0 0 0 0 0 0
0 0 0 0 0 0 0 0 0 0 0 0 0 0 0 0 0 0 0 0 0 0 0 0 0 0 0 0 0 0 0 0 0 0 0 0 0 0 0 0 0 0 0
0 0 0 0 0 0 0 0 0 0 0 0 0 0 0 0 0 0 0 0 0 0 0 0 0 0 0 0 0 0 0 0 0 0 0 0 0 0 0 0 0 0 0
Wind_Speed_500mb
101 93 84 74 70 69 73 75 76 61 59 58 54 53 46 44 41 38 38 41 38 34 30 29 25 32 41 47 39 34 31 29 30 27 23 24 25 26 28 29 33 35 35
102 94 88 78 71 72 76 80 82 78 70 68 62 58 53 53 50 46 44 46 49 47 37 29 29 33 39 42 42 43 34 32 33 33 30 33 37 30 32 36 35 36 43
105 97 90 86 80 73 77 82 87 86 86 79 70 68 67 60 56 54 51 50 54 49 46 38 31 35 41 37 35 37 37 36 28 31 35 38 40 38 40 43 37 40 42
108 101 95 89 83 78 76 83 86 91 88 89 88 82 72 67 65 64 61 57 56 52 52 43 39 43 42 42 41 42 37 37 33 38 32 43 41 42 48 52 55 49 55
114 104 100 91 84 82 81 83 89 89 93 90 87 85 80 76 74 73 68 64 62 56 55 56 43 40 41 38 36 40 45 43 47 50 43 45 45 48 49 45 43 44 46
117 109 97 94 94 92 88 86 86 90 90 92 95 90 87 83 77 75 69 71 71 62 56 60 53 41 41 41 43 51 50 49 49 51 44 50 53 40 41 38 41 45 43
114 112 103 97 96 95 91 89 89 88 87 89 92 91 86 82 78 74 70 72 75 58 54 59 54 45 42 46 50 53 56 48 51 43 41 43 52 44 42 42 45 46 48
112 112 107 101 97 95 93 92 90 86 84 82 79 78 80 79 72 65 67 70 65 59 49 52 60 49 46 44 49 55 54 49 43 34 44 43 48 42 42 42 45 48 49
112 110 110 104 98 97 95 91 86 81 78 76 68 66 66 62 53 49 55 61 60 51 47 47 55 51 42 42 47 47 45 45 42 41 44 46 40 41 41 45 43 47 49
113 110 110 111 103 94 91 89 81 72 68 66 63 60 58 52 45 47 53 58 53 38 45 48 49 50 42 35 48 44 47 45 44 44 42 35 38 40 41 45 42 40 44
99 109 116 116 111 97 88 84 80 73 71 64 61 59 55 51 48 48 50 53 40 35 40 44 49 48 46 46 47 49 46 41 43 41 34 36 34 38 38 30 31 29 38
108 107 107 114 113 101 94 88 84 80 73 71 60 49 51 53 47 42 37 36 32 30 28 28 39 46 46 41 40 44 39 40 37 29 29 25 28 29 25 27 36 42 46
106 100 103 96 100 99 97 95 87 81 79 70 57 53 56 51 40 38 35 33 30 28 28 29 28 24 24 27 31 33 36 35 29 26 26 29 26 24 27 30 37 45 46
100 94 97 94 92 93 93 91 86 83 76 63 53 72 57 48 42 39 37 38 34 31 30 30 28 27 28 28 31 34 27 26 23 24 25 29 30 28 30 37 45 45 38
95 88 87 88 88 89 88 85 84 75 62 63 55 45 43 40 37 28 36 35 32 27 30 35 31 29 30 28 21 18 20 27 28 29 25 30 30 32 34 37 37 30 35
91 93 91 87 83 83 84 72 60 36 29 29 30 33 32 26 32 27 27 28 27 29 32 32 29 25 23 22 22 21 23 26 24 27 32 31 29 27 32 35 31 29 33
83 84 83 79 64 48 34 45 24 44 36 34 41 43 33 32 27 31 30 28 26 27 28 26 24 23 19 22 22 21 21 25 27 30 37 39 36 36 35 34 27 32 32
34 45 39 36 38 37 45 53 46 40 52 48 44 43 40 34 28 27 33 24 23 25 25 23 22 23 23 23 22 19 18 19 23 28 34 34 37 38 25 22 29 27 31
25 27 42 49 54 52 40 39 42 46 44 50 52 47 44 37 35 34 32 20 27 27 26 25 24 25 28 25 20 18 17 17 19 23 26 23 18 18 21 23 23 25 30
44 37 40 42 42 42 47 48 41 40 39 33 38 38 36 31 34 37 31 28 30 29 30 24 29 28 26 19 16 21 25 22 21 19 18 19 20 22 23 24 20 27 27
44 40 36 40 41 38 40 43 43 41 36 31 30 27 23 25 29 30 31 29 29 32 29 25 31 27 21 22 27 28 19 14 15 18 19 20 20 27 29 23 22 23 26
18 27 36 38 34 30 29 37 30 33 39 33 29 29 31 34 34 32 28 26 32 34 31 28 21 21 21 28 30 27 22 21 23 23 21 23 28 29 30 26 20 19 23
19 25 29 37 35 33 38 39 36 42 39 38 37 39 43 42 39 34 31 26 35 36 34 31 20 19 22 21 25 26 25 26 26 22 20 24 27 31 27 22 17 18 22
18 19 33 36 22 30 37 36 26 31 38 37 38 34 35 33 32 32 32 31 36 40 40 35 26 27 25 24 17 19 25 25 23 27 26 27 24 22 22 20 18 17 17
23 10 18 22 25 29 23 22 21 25 34 34 32 27 27 33 37 38 33 33 44 47 33 34 30 28 27 15 9 11 18 18 22 25 29 30 28 25 25 20 16 12 14
17 20 21 17 23 21 22 24 28 37 27 30 33 26 27 42 41 37 32 32 37 44 33 34 28 25 13 12 13 12 13 14 15 22 26 27 24 26 27 20 14 13 13
Wind_Direction_500mb
221 220 221 223 225 223 217 217 222 224 224 232 237 234 230 232 237 244 242 237 232 221 224 230 230 228 235 238 245 255 256 253 265 267 268 265 286 290 290 295 300 300 307
220 220 220 221 223 224 222 218 221 225 229 233 236 236 237 237 240 245 249 244 240 228 225 233 243 236 235 234 247 253 255 250 257 272 274 279 281 283 283 286 288 287 289
220 220 220 220 223 225 226 225 222 224 229 233 234 236 238 239 242 246 251 254 252 241 232 235 245 255 255 251 248 255 250 257 265 273 286 289 294 289 286 288 287 291 288
223 219 220 222 223 225 227 228 228 227 227 230 236 241 242 244 249 252 253 257 257 246 238 239 245 250 258 260 257 248 253 257 269 272 278 286 290 296 294 290 292 291 293
223 222 221 223 226 227 226 229 231 231 231 233 235 239 243 246 250 253 258 262 261 252 245 238 245 254 257 256 258 251 248 261 259 273 269 282 296 301 299 295 291 295 299
223 225 223 223 225 227 229 229 231 233 233 235 237 239 243 247 253 258 261 263 264 256 249 241 240 256 250 246 248 248 254 261 264 265 274 277 299 303 297 299 299 301 307
223 226 225 225 226 228 228 230 233 233 234 236 238 240 244 250 256 261 262 263 264 261 257 249 242 253 250 248 251 261 258 260 269 258 282 277 295 294 296 291 293 295 297
222 224 227 227 227 228 229 230 232 235 236 238 239 242 247 251 256 260 260 262 262 261 257 249 245 253 247 247 261 258 266 270 275 283 289 287 289 289 285 292 293 294 297
223 225 227 227 227 227 227 230 232 234 237 240 241 243 245 249 250 252 255 258 258 263 255 252 242 249 244 254 260 260 272 272 276 282 286 286 281 286 293 295 296 301 299
226 230 230 228 228 228 229 228 229 232 236 237 238 243 247 250 251 250 251 254 250 257 249 247 243 248 240 267 263 263 267 273 278 283 291 285 289 292 290 290 293 294 302
233 233 227 228 228 229 230 229 229 228 230 231 236 243 249 250 247 253 249 243 248 247 248 248 240 238 244 262 257 259 269 275 279 283 281 293 302 300 291 284 296 298 306
231 228 229 227 228 226 228 229 227 227 226 227 227 231 247 246 242 238 240 246 241 239 228 234 238 247 248 247 247 262 264 271 275 273 285 299 309 314 297 297 301 300 301
227 227 228 228 227 228 226 225 223 224 225 222 215 230 227 226 232 236 233 228 209 211 225 239 235 222 224 241 248 260 269 273 267 268 282 286 285 288 290 295 300 305 303
219 222 223 222 218 222 221 224 221 215 214 211 200 221 217 217 216 215 220 200 201 213 219 226 221 229 241 245 254 271 257 245 251 273 288 291 282 285 292 297 304 309 309
207 209 209 210 207 203 204 203 208 208 216 214 200 201 202 211 212 210 202 208 212 219 222 221 225 241 252 254 235 244 256 251 258 276 272 282 278 285 286 297 308 309 314
194 196 202 199 197 197 191 195 212 219 199 167 175 199 193 196 181 183 206 203 191 195 208 222 235 242 230 222 239 251 260 262 271 276 266 277 285 280 292 304 303 307 312
190 184 185 198 206 193 158 130 178 166 170 189 170 161 160 168 176 166 186 187 180 196 214 217 220 220 228 238 251 248 262 264 250 252 257 267 277 286 293 296 299 310 312
192 202 206 198 139 160 163 144 197 216 182 166 163 165 165 160 170 173 184 192 206 206 212 213 218 227 236 237 247 263 280 266 264 261 256 260 274 282 279 294 309 309 314
166 177 165 164 163 171 169 163 167 198 180 168 167 163 164 168 165 185 189 204 214 211 201 195 207 220 216 225 241 255 264 262 255 253 268 268 261 275 290 302 302 312 317
153 161 151 151 155 158 144 143 163 179 178 164 167 170 173 177 181 197 200 208 210 205 202 212 214 216 206 223 254 282 288 283 276 272 250 249 267 291 292 297 303 317 318
131 134 132 132 135 133 123 142 160 153 151 169 173 173 168 190 190 194 199 204 207 208 212 207 204 213 239 271 296 296 282 285 283 258 258 261 270 288 292 279 302 311 325
124 155 149 132 127 121 142 153 163 174 174 175 176 172 187 196 195 194 197 204 207 208 210 213 224 253 273 295 301 288 282 289 283 259 249 262 282 293 282 278 292 310 318
137 137 155 162 166 175 187 184 181 197 199 199 200 197 193 189 194 196 199 205 206 205 210 218 247 264 281 296 314 287 287 293 294 243 245 257 275 288 266 281 293 304 330
70 162 171 173 175 198 199 193 184 212 225 208 210 209 206 190 200 210 215 212 216 218 220 232 254 264 282 297 321 306 292 290 276 250 256 269 275 273 253 267 281 292 321
243 284 238 224 219 211 224 193 180 197 197 191 193 190 216 218 208 216 214 220 224 222 234 247 259 261 269 288 317 330 328 293 274 266 268 270 269 262 247 258 282 293 297
249 257 252 193 165 168 198 195 191 196 191 199 200 202 207 206 216 218 227 235 223 222 235 244 249 258 265 265 286 298 350 345 301 287 280 265 250 237 236 255 261 267 286
Wind_Speed_850mb
101 93 84 74 70 69 73 75 76 61 59 58 54 53 46 44 41 38 38 41 38 34 30 29 25 32 41 47 39 34 31 29 30 27 23 24 25 26 28 29 33 35 35
102 94 88 78 71 72 76 80 82 78 70 68 62 58 53 53 50 46 44 46 49 47 37 29 29 33 39 42 42 43 34 32 33 33 30 33 37 30 32 36 35 36 43
105 97 90 86 80 73 77 82 87 86 86 79 70 68 67 60 56 54 51 50 54 49 46 38 31 35 41 37 35 37 37 36 28 31 35 38 40 38 40 43 37 40 42
108 101 95 89 83 78 76 83 86 91 88 89 88 82 72 67 65 64 61 57 56 52 52 43 39 43 42 42 41 42 37 37 33 38 32 43 41 42 48 52 55 49 55
114 104 100 91 84 82 81 83 89 89 93 90 87 85 80 76 74 73 68 64 62 56 55 56 43 40 41 38 36 40 45 43 47 50 43 45 45 48 49 45 43 44 46
117 109 97 94 94 92 88 86 86 90 90 92 95 90 87 83 77 75 69 71 71 62 56 60 53 41 41 41 43 51 50 49 49 51 44 50 53 40 41 38 41 45 43
114 112 103 97 96 95 91 89 89 88 87 89 92 91 86 82 78 74 70 72 75 58 54 59 54 45 42 46 50 53 56 48 51 43 41 43 52 44 42 42 45 46 48
112 112 107 101 97 95 93 92 90 86 84 82 79 78 80 79 72 65 67 70 65 59 49 52 60 49 46 44 49 55 54 49 43 34 44 43 48 42 42 42 45 48 49
112 110 110 104 98 97 95 91 86 81 78 76 68 66 66 62 53 49 55 61 60 51 47 47 55 51 42 42 47 47 45 45 42 41 44 46 40 41 41 45 43 47 49
113 110 110 111 103 94 91 89 81 72 68 66 63 60 58 52 45 47 53 58 53 38 45 48 49 50 42 35 48 44 47 45 44 44 42 35 38 40 41 45 42 40 44
99 109 116 116 111 97 88 84 80 73 71 64 61 59 55 51 48 48 50 53 40 35 40 44 49 48 46 46 47 49 46 41 43 41 34 36 34 38 38 30 31 29 38
108 107 107 114 113 101 94 88 84 80 73 71 60 49 51 53 47 42 37 36 32 30 28 28 39 46 46 41 40 44 39 40 37 29 29 25 28 29 25 27 36 42 46
106 100 103 96 100 99 97 95 87 81 79 70 57 53 56 51 40 38 35 33 30 28 28 29 28 24 24 27 31 33 36 35 29 26 26 29 26 24 27 30 37 45 46
100 94 97 94 92 93 93 91 86 83 76 63 53 72 57 48 42 39 37 38 34 31 30 30 28 27 28 28 31 34 27 26 23 24 25 29 30 28 30 37 45 45 38
95 88 87 88 88 89 88 85 84 75 62 63 55 45 43 40 37 28 36 35 32 27 30 35 31 29 30 28 21 18 20 27 28 29 25 30 30 32 34 37 37 30 35
91 93 91 87 83 83 84 72 60 36 29 29 30 33 32 26 32 27 27 28 27 29 32 32 29 25 23 22 22 21 23 26 24 27 32 31 29 27 32 35 31 29 33
83 84 83 79 64 48 34 45 24 44 36 34 41 43 33 32 27 31 30 28 26 27 28 26 24 23 19 22 22 21 21 25 27 30 37 39 36 36 35 34 27 32 32
34 45 39 36 38 37 45 53 46 40 52 48 44 43 40 34 28 27 33 24 23 25 25 23 22 23 23 23 22 19 18 19 23 28 34 34 37 38 25 22 29 27 31
25 27 42 49 54 52 40 39 42 46 44 50 52 47 44 37 35 34 32 20 27 27 26 25 24 25 28 25 20 18 17 17 19 23 26 23 18 18 21 23 23 25 30
44 37 40 42 42 42 47 48 41 40 39 33 38 38 36 31 34 37 31 28 30 29 30 24 29 28 26 19 16 21 25 22 21 19 18 19 20 22 23 24 20 27 27
44 40 36 40 41 38 40 43 43 41 36 31 30 27 23 25 29 30 31 29 29 32 29 25 31 27 21 22 27 28 19 14 15 18 19 20 20 27 29 23 22 23 26
18 27 36 38 34 30 29 37 30 33 39 33 29 29 31 34 34 32 28 26 32 34 31 28 21 21 21 28 30 27 22 21 23 23 21 23 28 29 30 26 20 19 23
19 25 29 37 35 33 38 39 36 42 39 38 37 39 43 42 39 34 31 26 35 36 34 31 20 19 22 21 25 26 25 26 26 22 20 24 27 31 27 22 17 18 22
18 19 33 36 22 30 37 36 26 31 38 37 38 34 35 33 32 32 32 31 36 40 40 35 26 27 25 24 17 19 25 25 23 27 26 27 24 22 22 20 18 17 17
23 10 18 22 25 29 23 22 21 25 34 34 32 27 27 33 37 38 33 33 44 47 33 34 30 28 27 15 9 11 18 18 22 25 29 30 28 25 25 20 16 12 14
17 20 21 17 23 21 22 24 28 37 27 30 33 26 27 42 41 37 32 32 37 44 33 34 28 25 13 12 13 12 13 14 15 22 26 27 24 26 27 20 14 13 13
Wind_Direction_850mb
221 220 221 223 225 223 217 217 222 224 224 232 237 234 230 232 237 244 242 237 232 221 224 230 230 228 235 238 245 255 256 253 265 267 268 265 286 290 290 295 300 300 307
220 220 220 221 223 224 222 218 221 225 229 233 236 236 237 237 240 245 249 244 240 228 225 233 243 236 235 234 247 253 255 250 257 272 274 279 281 283 283 286 288 287 289
220 220 220 220 223 225 226 225 222 224 229 233 234 236 238 239 242 246 251 254 252 241 232 235 245 255 255 251 248 255 250 257 265 273 286 289 294 289 286 288 287 291 288
223 219 220 222 223 225 227 228 228 227 227 230 236 241 242 244 249 252 253 257 257 246 238 239 245 250 258 260 257 248 253 257 269 272 278 286 290 296 294 290 292 291 293
223 222 221 223 226 227 226 229 231 231 231 233 235 239 243 246 250 253 258 262 261 252 245 238 245 254 257 256 258 251 248 261 259 273 269 282 296 301 299 295 291 295 299
223 225 223 223 225 227 229 229 231 233 233 235 237 239 243 247 253 258 261 263 264 256 249 241 240 256 250 246 248 248 254 261 264 265 274 277 299 303 297 299 299 301 307
223 226 225 225 226 228 228 230 233 233 234 236 238 240 244 250 256 261 262 263 264 261 257 249 242 253 250 248 251 261 258 260 269 258 282 277 295 294 296 291 293 295 297
222 224 227 227 227 228 229 230 232 235 236 238 239 242 247 251 256 260 260 262 262 261 257 249 245 253 247 247 261 258 266 270 275 283 289 287 289 289 285 292 293 294 297
223 225 227 227 227 227 227 230 232 234 237 240 241 243 245 249 250 252 255 258 258 263 255 252 242 249 244 254 260 260 272 272 276 282 286 286 281 286 293 295 296 301 299
226 230 230 228 228 228 229 228 229 232 236 237 238 243 247 250 251 250 251 254 250 257 249 247 243 248 240 267 263 263 267 273 278 283 291 285 289 292 290 290 293 294 302
233 233 227 228 228 229 230 229 229 228 230 231 236 243 249 250 247 253 249 243 248 247 248 248 240 238 244 262 257 259 269 275 279 283 281 293 302 300 291 284 296 298 306
231 228 229 227 228 226 228 229 227 227 226 227 227 231 247 246 242 238 240 246 241 239 228 234 238 247 248 247 247 262 264 271 275 273 285 299 309 314 297 297 301 300 301
227 227 228 228 227 228 226 225 223 224 225 222 215 230 227 226 232 236 233 228 209 211 225 239 235 222 224 241 248 260 269 273 267 268 282 286 285 288 290 295 300 305 303
219 222 223 222 218 222 221 224 221 215 214 211 200 221 217 217 216 215 220 200 201 213 219 226 221 229 241 245 254 271 257 245 251 273 288 291 282 285 292 297 304 309 309
207 209 209 210 207 203 204 203 208 208 216 214 200 201 202 211 212 210 202 208 212 219 222 221 225 241 252 254 235 244 256 251 258 276 272 282 278 285 286 297 308 309 314
194 196 202 199 197 197 191 195 212 219 199 167 175 199 193 196 181 183 206 203 191 195 208 222 235 242 230 222 239 251 260 262 271 276 266 277 285 280 292 304 303 307 312
190 184 185 198 206 193 158 130 178 166 170 189 170 161 160 168 176 166 186 187 180 196 214 217 220 220 228 238 251 248 262 264 250 252 257 267 277 286 293 296 299 310 312
192 202 206 198 139 160 163 144 197 216 182 166 163 165 165 160 170 173 184 192 206 206 212 213 218 227 236 237 247 263 280 266 264 261 256 260 274 282 279 294 309 309 314
166 177 165 164 163 171 169 163 167 198 180 168 167 163 164 168 165 185 189 204 214 211 201 195 207 220 216 225 241 255 264 262 255 253 268 268 261 275 290 302 302 312 317
153 161 151 151 155 158 144 143 163 179 178 164 167 170 173 177 181 197 200 208 210 205 202 212 214 216 206 223 254 282 288 283 276 272 250 249 267 291 292 297 303 317 318
131 134 132 132 135 133 123 142 160 153 151 169 173 173 168 190 190 194 199 204 207 208 212 207 204 213 239 271 296 296 282 285 283 258 258 261 270 288 292 279 302 311 325
124 155 149 132 127 121 142 153 163 174 174 175 176 172 187 196 195 194 197 204 207 208 210 213 224 253 273 295 301 288 282 289 283 259 249 262 282 293 282 278 292 310 318
137 137 155 162 166 175 187 184 181 197 199 199 200 197 193 189 194 196 199 205 206 205 210 218 247 264 281 296 314 287 287 293 294 243 245 257 275 288 266 281 293 304 330
70 162 171 173 175 198 199 193 184 212 225 208 210 209 206 190 200 210 215 212 216 218 220 232 254 264 282 297 321 306 292 290 276 250 256 269 275 273 253 267 281 292 321
243 284 238 224 219 211 224 193 180 197 197 191 193 190 216 218 208 216 214 220 224 222 234 247 259 261 269 288 317 330 328 293 274 266 268 270 269 262 247 258 282 293 297
249 257 252 193 165 168 198 195 191 196 191 199 200 202 207 206 216 218 227 235 223 222 235 244 249 258 265 265 286 298 350 345 301 287 280 265 250 237 236 255 261 267 286